| time (UTC) | temp F | wind direction | speed MPH | gust MPH | rain 1hr in | rain 24hr in | rain mn in | humidity % | barometer mb |
| 20260505092210 | 37 | 237 | 16.0 | 21.0 | 0.00 | 0.00 | 0.00 | 84 | 1027.0 |
| 20260505091706 | 37 | 235 | 13.0 | 22.0 | 0.00 | 0.00 | 0.00 | 83 | 1027.0 |
| 20260505091204 | 37 | 235 | 17.0 | 25.0 | 0.00 | 0.00 | 0.00 | 82 | 1026.9 |
| 20260505090702 | 38 | 228 | 10.0 | 26.0 | 0.00 | 0.00 | 0.00 | 81 | 1026.9 |
| 20260505090200 | 38 | 225 | 14.0 | 19.0 | 0.00 | 0.00 | 0.00 | 80 | 1026.7 |
| 20260505085657 | 38 | 230 | 16.0 | 26.0 | 0.00 | 0.00 | 0.00 | 80 | 1027.0 |
| 20260505085155 | 38 | 229 | 4.0 | 24.0 | 0.00 | 0.00 | 0.00 | 79 | 1027.1 |
| 20260505084652 | 38 | 226 | 10.0 | 21.0 | 0.00 | 0.00 | 0.00 | 79 | 1027.3 |
| 20260505084151 | 38 | 223 | 6.0 | 14.0 | 0.00 | 0.00 | 0.00 | 78 | 1027.3 |
| 20260505083648 | 39 | 205 | 5.0 | 13.0 | 0.00 | 0.00 | 0.00 | 76 | 1027.1 |
| 20260505083144 | 39 | 216 | 11.0 | 16.0 | 0.00 | 0.00 | 0.00 | 75 | 1027.1 |
| 20260505082640 | 39 | 220 | 4.0 | 16.0 | 0.00 | 0.00 | 0.00 | 75 | 1027.4 |
| 20260505082137 | 39 | 223 | 6.0 | 15.0 | 0.00 | 0.00 | 0.00 | 73 | 1027.4 |
| 20260505081633 | 39 | 222 | 8.0 | 17.0 | 0.00 | 0.00 | 0.00 | 72 | 1027.1 |
| 20260505081131 | 40 | 210 | 10.0 | 14.0 | 0.00 | 0.00 | 0.00 | 70 | 1027.4 |
| 20260505080627 | 41 | 201 | 4.0 | 13.0 | 0.00 | 0.00 | 0.00 | 67 | 1027.3 |
| 20260505080123 | 41 | 222 | 6.0 | 14.0 | 0.00 | 0.00 | 0.00 | 67 | 1027.1 |
| 20260505075620 | 41 | 210 | 5.0 | 12.0 | 0.00 | 0.00 | 0.00 | 65 | 1027.3 |
| 20260505075117 | 42 | 201 | 4.0 | 7.0 | 0.00 | 0.00 | 0.00 | 63 | 1027.4 |
| 20260505074614 | 43 | 204 | 2.0 | 5.0 | 0.00 | 0.00 | 0.00 | 57 | 1027.5 |
| 20260505074111 | 43 | 116 | 3.0 | 4.0 | 0.00 | 0.00 | 0.00 | 57 | 1027.5 |
| 20260505073608 | 43 | 109 | 5.0 | 7.0 | 0.00 | 0.00 | 0.00 | 56 | 1027.5 |
| 20260505073107 | 43 | 125 | 3.0 | 4.0 | 0.00 | 0.00 | 0.00 | 56 | 1027.8 |
| 20260505072607 | 43 | 74 | 6.0 | 7.0 | 0.00 | 0.00 | 0.00 | 56 | 1027.8 |
| 20260505072104 | 43 | 107 | 3.0 | 4.0 | 0.00 | 0.00 | 0.00 | 55 | 1027.7 |
| 20260505071559 | 42 | 79 | 3.0 | 4.0 | 0.00 | 0.00 | 0.00 | 56 | 1027.8 |
| 20260505071057 | 42 | 88 | 4.0 | 5.0 | 0.00 | 0.00 | 0.00 | 59 | 1027.7 |
| 20260505070554 | 42 | 75 | 7.0 | 11.0 | 0.00 | 0.00 | 0.00 | 58 | 1028.1 |
| 20260505070050 | 44 | 74 | 3.0 | 5.0 | 0.00 | 0.00 | 0.00 | 54 | 1028.2 |
| 20260505065546 | 44 | 54 | 10.0 | 22.0 | 0.00 | 0.00 | 0.00 | 54 | 1028.1 |
| 20260505065043 | 42 | 77 | 13.0 | 17.0 | 0.00 | 0.00 | 0.00 | 58 | 1028.1 |
| 20260505064540 | 43 | 79 | 15.0 | 18.0 | 0.00 | 0.00 | 0.00 | 59 | 1028.1 |
| 20260505064038 | 43 | 263 | 12.0 | 14.0 | 0.00 | 0.00 | 0.00 | 59 | 1027.5 |
| 20260505063535 | 43 | 259 | 10.0 | 13.0 | 0.00 | 0.00 | 0.00 | 58 | 1027.5 |
| 20260505063031 | 43 | 263 | 10.0 | 12.0 | 0.00 | 0.00 | 0.00 | 58 | 1027.4 |
| 20260505062528 | 43 | 264 | 7.0 | 10.0 | 0.00 | 0.00 | 0.00 | 57 | 1027.4 |
| 20260505062025 | 44 | 263 | 9.0 | 10.0 | 0.00 | 0.00 | 0.00 | 57 | 1027.7 |
| 20260505061523 | 44 | 299 | 9.0 | 13.0 | 0.00 | 0.00 | 0.00 | 55 | 1027.7 |
| 20260505061020 | 44 | 296 | 8.0 | 13.0 | 0.00 | 0.00 | 0.00 | 55 | 1027.5 |
| 20260505060518 | 44 | 308 | 7.0 | 11.0 | 0.00 | 0.00 | 0.00 | 55 | 1027.8 |
| 20260505060014 | 45 | 302 | 8.0 | 13.0 | 0.00 | 0.00 | 0.00 | 53 | 1027.7 |
| 20260505055509 | 45 | 301 | 8.0 | 11.0 | 0.00 | 0.00 | 0.00 | 53 | 1027.7 |
| 20260505055006 | 45 | 305 | 9.0 | 12.0 | 0.00 | 0.00 | 0.00 | 53 | 1027.7 |
| 20260505054504 | 44 | 301 | 6.0 | 9.0 | 0.00 | 0.00 | 0.00 | 54 | 1027.5 |
| 20260505054002 | 45 | 264 | 7.0 | 10.0 | 0.00 | 0.00 | 0.00 | 54 | 1027.7 |
| 20260505053458 | 44 | 269 | 7.0 | 9.0 | 0.00 | 0.00 | 0.00 | 55 | 1027.5 |
| 20260505052955 | 44 | 260 | 8.0 | 11.0 | 0.00 | 0.00 | 0.00 | 55 | 1027.7 |
| 20260505052452 | 44 | 262 | 8.0 | 11.0 | 0.00 | 0.00 | 0.00 | 55 | 1027.5 |
| 20260505051949 | 44 | 246 | 6.0 | 10.0 | 0.00 | 0.00 | 0.00 | 56 | 1027.4 |
| 20260505051446 | 44 | 237 | 8.0 | 9.0 | 0.00 | 0.00 | 0.00 | 56 | 1027.5 |
| 20260505050944 | 44 | 230 | 9.0 | 11.0 | 0.00 | 0.00 | 0.00 | 56 | 1027.5 |
| 20260505050443 | 44 | 249 | 4.0 | 9.0 | 0.00 | 0.00 | 0.00 | 56 | 1027.7 |
| 20260505041410 | 45 | 344 | 5.0 | 11.0 | 0.00 | 0.00 | 0.00 | 48 | 1027.8 |
| 20260505040907 | 45 | 337 | 12.0 | 15.0 | 0.00 | 0.00 | 0.00 | 47 | 1027.9 |
| 20260505040405 | 45 | 333 | 10.0 | 13.0 | 0.00 | 0.00 | 0.00 | 50 | 1027.9 |
| 20260505035901 | 45 | 337 | 12.0 | 16.0 | 0.00 | 0.00 | 0.00 | 51 | 1027.9 |
| 20260505035357 | 46 | 339 | 22.0 | 22.0 | 0.00 | 0.00 | 0.00 | 48 | 1027.7 |
| 20260505034855 | 45 | 338 | 13.0 | 17.0 | 0.00 | 0.00 | 0.00 | 52 | 1027.8 |
| 20260505034351 | 45 | 327 | 14.0 | 23.0 | 0.00 | 0.00 | 0.00 | 52 | 1027.9 |
| 20260505033848 | 45 | 337 | 17.0 | 22.0 | 0.00 | 0.00 | 0.00 | 55 | 1027.8 |
| 20260505033345 | 45 | 338 | 14.0 | 16.0 | 0.00 | 0.00 | 0.00 | 53 | 1027.7 |
| 20260505032843 | 45 | 342 | 10.0 | 19.0 | 0.00 | 0.00 | 0.00 | 54 | 1027.7 |
| 20260505032339 | 45 | 335 | 15.0 | 19.0 | 0.00 | 0.00 | 0.00 | 55 | 1027.5 |
| 20260505031836 | 44 | 338 | 9.0 | 19.0 | 0.00 | 0.00 | 0.00 | 56 | 1027.5 |
| 20260505031333 | 44 | 334 | 13.0 | 19.0 | 0.00 | 0.00 | 0.00 | 58 | 1027.5 |
| 20260505030830 | 43 | 329 | 11.0 | 18.0 | 0.00 | 0.00 | 0.00 | 60 | 1027.4 |
| 20260505030326 | 44 | 329 | 13.0 | 20.0 | 0.00 | 0.00 | 0.00 | 60 | 1027.5 |
| 20260505025822 | 44 | 335 | 14.0 | 21.0 | 0.00 | 0.00 | 0.00 | 59 | 1027.4 |
| 20260505025320 | 44 | 325 | 13.0 | 14.0 | 0.00 | 0.00 | 0.00 | 57 | 1027.4 |
| 20260505024818 | 45 | 320 | 8.0 | 18.0 | 0.00 | 0.00 | 0.00 | 54 | 1027.4 |
| 20260505024315 | 44 | 334 | 16.0 | 17.0 | 0.00 | 0.00 | 0.00 | 55 | 1027.4 |
| 20260505023812 | 44 | 329 | 10.0 | 14.0 | 0.00 | 0.00 | 0.00 | 58 | 1027.3 |
| 20260505023309 | 45 | 323 | 17.0 | 24.0 | 0.00 | 0.00 | 0.00 | 56 | 1027.5 |
| 20260505022807 | 44 | 279 | 4.0 | 20.0 | 0.00 | 0.00 | 0.00 | 57 | 1027.1 |
| 20260505022304 | 44 | 295 | 7.0 | 17.0 | 0.00 | 0.00 | 0.00 | 58 | 1027.5 |
| 20260505021800 | 45 | 284 | 12.0 | 18.0 | 0.00 | 0.00 | 0.00 | 57 | 1027.1 |
| 20260505021257 | 44 | 299 | 14.0 | 21.0 | 0.00 | 0.00 | 0.00 | 57 | 1027.1 |
| 20260505020753 | 44 | 301 | 15.0 | 22.0 | 0.00 | 0.00 | 0.00 | 57 | 1027.0 |
| 20260505020248 | 45 | 308 | 23.0 | 27.0 | 0.00 | 0.00 | 0.00 | 55 | 1027.4 |
| 20260505015746 | 45 | 309 | 14.0 | 25.0 | 0.00 | 0.00 | 0.00 | 57 | 1027.3 |
| 20260505015242 | 45 | 297 | 11.0 | 23.0 | 0.00 | 0.00 | 0.00 | 58 | 1027.1 |
| 20260505014740 | 45 | 302 | 16.0 | 27.0 | 0.00 | 0.00 | 0.00 | 58 | 1027.4 |
| 20260505014237 | 45 | 282 | 18.0 | 25.0 | 0.00 | 0.00 | 0.00 | 57 | 1027.4 |
| 20260505013733 | 45 | 295 | 19.0 | 26.0 | 0.00 | 0.00 | 0.00 | 56 | 1027.7 |
| 20260505013231 | 45 | 283 | 6.0 | 26.0 | 0.00 | 0.00 | 0.00 | 57 | 1027.3 |
| 20260505012729 | 46 | 281 | 10.0 | 24.0 | 0.00 | 0.00 | 0.00 | 56 | 1027.5 |
| 20260505012226 | 46 | 277 | 17.0 | 28.0 | 0.00 | 0.00 | 0.00 | 56 | 1027.5 |
| 20260505011721 | 46 | 267 | 17.0 | 27.0 | 0.00 | 0.00 | 0.00 | 55 | 1027.4 |
| 20260505011219 | 46 | 265 | 20.0 | 29.0 | 0.00 | 0.00 | 0.00 | 53 | 1027.4 |
| 20260505010714 | 47 | 272 | 10.0 | 29.0 | 0.00 | 0.00 | 0.00 | 54 | 1027.3 |
| 20260505010211 | 47 | 255 | 17.0 | 31.0 | 0.00 | 0.00 | 0.00 | 52 | 1027.1 |
| 20260505005707 | 49 | 247 | 30.0 | 33.0 | 0.00 | 0.00 | 0.00 | 49 | 1027.1 |
| 20260505005205 | 48 | 256 | 34.0 | 39.0 | 0.00 | 0.00 | 0.00 | 50 | 1027.1 |
| 20260505004702 | 50 | 245 | 24.0 | 39.0 | 0.00 | 0.00 | 0.00 | 48 | 1027.1 |
| 20260505004158 | 50 | 238 | 32.0 | 41.0 | 0.00 | 0.00 | 0.00 | 47 | 1027.0 |
| 20260505003655 | 51 | 241 | 27.0 | 40.0 | 0.00 | 0.00 | 0.00 | 47 | 1027.3 |
| 20260505003153 | 50 | 237 | 20.0 | 42.0 | 0.00 | 0.00 | 0.00 | 47 | 1026.9 |
| 20260505002649 | 52 | 263 | 31.0 | 40.0 | 0.00 | 0.00 | 0.00 | 43 | 1027.3 |
| 20260505002147 | 56 | 277 | 9.0 | 15.0 | 0.00 | 0.00 | 0.00 | 30 | 1027.1 |
| 20260505001644 | 56 | 254 | 8.0 | 22.0 | 0.00 | 0.00 | 0.00 | 30 | 1027.0 |
| 20260505001141 | 57 | 288 | 5.0 | 16.0 | 0.00 | 0.00 | 0.00 | 30 | 1027.3 |
| 20260505000638 | 55 | 342 | 4.0 | 12.0 | 0.00 | 0.00 | 0.00 | 29 | 1027.1 |
| 20260505000137 | 56 | 297 | 13.0 | 23.0 | 0.00 | 0.00 | 0.00 | 29 | 1027.4 |
| 20260504235632 | 55 | 347 | 24.0 | 24.0 | 0.00 | 0.00 | 0.00 | 30 | 1027.3 |
| 20260504235129 | 55 | 301 | 8.0 | 15.0 | 0.00 | 0.00 | 0.00 | 28 | 1027.3 |
| 20260504234626 | 54 | 279 | 5.0 | 22.0 | 0.00 | 0.00 | 0.00 | 30 | 1027.7 |
| 20260504234123 | 55 | 289 | 13.0 | 19.0 | 0.00 | 0.00 | 0.00 | 30 | 1027.3 |
| 20260504233619 | 55 | 276 | 19.0 | 25.0 | 0.00 | 0.00 | 0.00 | 29 | 1027.5 |
| 20260504233115 | 55 | 282 | 14.0 | 19.0 | 0.00 | 0.00 | 0.00 | 29 | 1027.5 |
| 20260504232613 | 55 | 295 | 9.0 | 22.0 | 0.00 | 0.00 | 0.00 | 29 | 1027.5 |
| 20260504232110 | 53 | 301 | 8.0 | 24.0 | 0.00 | 0.00 | 0.00 | 33 | 1027.4 |
| 20260504231606 | 53 | 308 | 7.0 | 17.0 | 0.00 | 0.00 | 0.00 | 32 | 1027.4 |
| 20260504231102 | 53 | 312 | 20.0 | 20.0 | 0.00 | 0.00 | 0.00 | 32 | 1027.4 |
| 20260504230559 | 53 | 308 | 8.0 | 18.0 | 0.00 | 0.00 | 0.00 | 32 | 1027.7 |
| 20260504230058 | 53 | 311 | 22.0 | 25.0 | 0.00 | 0.00 | 0.00 | 32 | 1027.4 |
| 20260504225555 | 54 | 260 | 5.0 | 19.0 | 0.00 | 0.00 | 0.00 | 31 | 1027.7 |
| 20260504225052 | 54 | 263 | 8.0 | 25.0 | 0.00 | 0.00 | 0.00 | 32 | 1027.3 |
| 20260504224548 | 53 | 334 | 11.0 | 18.0 | 0.00 | 0.00 | 0.00 | 33 | 1027.7 |
| 20260504224046 | 54 | 297 | 9.0 | 19.0 | 0.00 | 0.00 | 0.00 | 30 | 1027.5 |
| 20260504223543 | 55 | 341 | 5.0 | 16.0 | 0.00 | 0.00 | 0.00 | 32 | 1027.7 |
| 20260504223038 | 53 | 319 | 9.0 | 27.0 | 0.00 | 0.00 | 0.00 | 32 | 1027.7 |
| 20260504222535 | 53 | 327 | 10.0 | 27.0 | 0.00 | 0.00 | 0.00 | 33 | 1027.5 |
| 20260504222033 | 53 | 345 | 8.0 | 21.0 | 0.00 | 0.00 | 0.00 | 33 | 1027.4 |
| 20260504221530 | 53 | 317 | 22.0 | 23.0 | 0.00 | 0.00 | 0.00 | 34 | 1027.5 |
| 20260504221026 | 52 | 306 | 11.0 | 24.0 | 0.00 | 0.00 | 0.00 | 34 | 1027.5 |
| 20260504220523 | 54 | 285 | 7.0 | 23.0 | 0.00 | 0.00 | 0.00 | 33 | 1027.5 |
| 20260504220020 | 55 | 318 | 5.0 | 19.0 | 0.00 | 0.00 | 0.00 | 31 | 1027.8 |
| 20260504215516 | 55 | 296 | 9.0 | 28.0 | 0.00 | 0.00 | 0.00 | 33 | 1027.5 |
| 20260504215014 | 55 | 309 | 12.0 | 25.0 | 0.00 | 0.00 | 0.00 | 34 | 1027.7 |
| 20260504214510 | 55 | 329 | 15.0 | 29.0 | 0.00 | 0.00 | 0.00 | 33 | 1028.1 |
| 20260504214006 | 53 | 289 | 12.0 | 35.0 | 0.00 | 0.00 | 0.00 | 32 | 1028.2 |
| 20260504213502 | 55 | 309 | 26.0 | 31.0 | 0.00 | 0.00 | 0.00 | 32 | 1028.1 |
| 20260504213000 | 56 | 309 | 13.0 | 21.0 | 0.00 | 0.00 | 0.00 | 33 | 1027.9 |
| 20260504212456 | 56 | 333 | 9.0 | 30.0 | 0.00 | 0.00 | 0.00 | 28 | 1028.1 |
| 20260504211953 | 55 | 301 | 27.0 | 31.0 | 0.00 | 0.00 | 0.00 | 30 | 1028.2 |
| 20260504211450 | 56 | 307 | 12.0 | 24.0 | 0.00 | 0.00 | 0.00 | 30 | 1028.2 |
| 20260504210947 | 55 | 328 | 14.0 | 23.0 | 0.00 | 0.00 | 0.00 | 29 | 1028.5 |
| 20260504210444 | 56 | 339 | 15.0 | 24.0 | 0.00 | 0.00 | 0.00 | 30 | 1028.1 |
| 20260504205941 | 57 | 304 | 12.0 | 13.0 | 0.00 | 0.00 | 0.00 | 30 | 1028.5 |
| 20260504205438 | 55 | 300 | 18.0 | 29.0 | 0.00 | 0.00 | 0.00 | 28 | 1028.6 |
| 20260504204937 | 54 | 337 | 11.0 | 19.0 | 0.00 | 0.00 | 0.00 | 31 | 1028.5 |
| 20260504204434 | 54 | 306 | 8.0 | 16.0 | 0.00 | 0.00 | 0.00 | 30 | 1028.2 |
| 20260504203934 | 54 | 338 | 14.0 | 18.0 | 0.00 | 0.00 | 0.00 | 30 | 1028.5 |
| 20260504203431 | 54 | 336 | 15.0 | 19.0 | 0.00 | 0.00 | 0.00 | 30 | 1028.5 |
| 20260504202927 | 56 | 341 | 9.0 | 24.0 | 0.00 | 0.00 | 0.00 | 27 | 1028.3 |
| 20260504202423 | 56 | 332 | 6.0 | 20.0 | 0.00 | 0.00 | 0.00 | 27 | 1028.7 |
| 20260504201920 | 54 | 333 | 11.0 | 16.0 | 0.00 | 0.00 | 0.00 | 28 | 1028.9 |
| 20260504201418 | 55 | 337 | 12.0 | 23.0 | 0.00 | 0.00 | 0.00 | 29 | 1028.7 |
| 20260504200915 | 53 | 347 | 17.0 | 30.0 | 0.00 | 0.00 | 0.00 | 31 | 1028.3 |
| 20260504200411 | 54 | 329 | 5.0 | 20.0 | 0.00 | 0.00 | 0.00 | 28 | 1029.0 |
| 20260504195908 | 52 | 18 | 17.0 | 24.0 | 0.00 | 0.00 | 0.00 | 30 | 1028.6 |
| 20260504195404 | 52 | 340 | 14.0 | 28.0 | 0.00 | 0.00 | 0.00 | 31 | 1028.9 |
| 20260504194901 | 53 | 316 | 5.0 | 23.0 | 0.00 | 0.00 | 0.00 | 32 | 1028.9 |
| 20260504194356 | 53 | 346 | 23.0 | 26.0 | 0.00 | 0.00 | 0.00 | 32 | 1028.6 |
| 20260504193852 | 53 | 334 | 24.0 | 25.0 | 0.00 | 0.00 | 0.00 | 32 | 1029.1 |
| 20260504193350 | 52 | 353 | 23.0 | 25.0 | 0.00 | 0.00 | 0.00 | 34 | 1028.9 |
| 20260504192849 | 52 | 113 | 5.0 | 9.0 | 0.00 | 0.00 | 0.00 | 33 | 1029.0 |
| 20260504192346 | 51 | 128 | 7.0 | 17.0 | 0.00 | 0.00 | 0.00 | 34 | 1029.1 |
| 20260504191844 | 52 | 154 | 7.0 | 12.0 | 0.00 | 0.00 | 0.00 | 33 | 1029.3 |
| 20260504191342 | 51 | 185 | 4.0 | 9.0 | 0.00 | 0.00 | 0.00 | 31 | 1029.3 |
| 20260504190837 | 50 | 125 | 5.0 | 9.0 | 0.00 | 0.00 | 0.00 | 33 | 1029.4 |
| 20260504190333 | 50 | 160 | 5.0 | 12.0 | 0.00 | 0.00 | 0.00 | 34 | 1029.1 |
| 20260504185830 | 49 | 173 | 7.0 | 11.0 | 0.00 | 0.00 | 0.00 | 35 | 1029.5 |
| 20260504185327 | 49 | 137 | 3.0 | 9.0 | 0.00 | 0.00 | 0.00 | 36 | 1029.7 |
| 20260504184823 | 48 | 164 | 1.0 | 6.0 | 0.00 | 0.00 | 0.00 | 38 | 1029.7 |
| 20260504184319 | 48 | 158 | 7.0 | 17.0 | 0.00 | 0.00 | 0.00 | 34 | 1029.7 |
| 20260504183815 | 47 | 85 | 19.0 | 30.0 | 0.00 | 0.00 | 0.00 | 34 | 1029.8 |
| 20260504183312 | 45 | 166 | 6.0 | 13.0 | 0.00 | 0.00 | 0.00 | 42 | 1030.3 |
| 20260504182810 | 47 | 237 | 10.0 | 27.0 | 0.00 | 0.00 | 0.00 | 38 | 1029.8 |
| 20260504182307 | 48 | 234 | 24.0 | 24.0 | 0.00 | 0.00 | 0.00 | 34 | 1029.7 |
| 20260504181804 | 50 | 286 | 8.0 | 17.0 | 0.00 | 0.00 | 0.00 | 32 | 1029.7 |
| 20260504181301 | 50 | 308 | 5.0 | 14.0 | 0.00 | 0.00 | 0.00 | 29 | 1029.8 |
| 20260504180801 | 51 | 274 | 5.0 | 9.0 | 0.00 | 0.00 | 0.00 | 32 | 1029.8 |
| 20260504180259 | 51 | 279 | 5.0 | 9.0 | 0.00 | 0.00 | 0.00 | 31 | 1029.7 |
| 20260504175756 | 51 | 307 | 7.0 | 18.0 | 0.00 | 0.00 | 0.00 | 30 | 1029.8 |
| 20260504175253 | 53 | 257 | 0.0 | 4.0 | 0.00 | 0.00 | 0.00 | 28 | 1029.8 |
| 20260504174751 | 54 | 291 | 5.0 | 12.0 | 0.00 | 0.00 | 0.00 | 30 | 1029.9 |
| 20260504174249 | 51 | 27 | 9.0 | 15.0 | 0.00 | 0.00 | 0.00 | 33 | 1029.8 |
| 20260504173745 | 53 | 341 | 3.0 | 15.0 | 0.00 | 0.00 | 0.00 | 34 | 1029.7 |
| 20260504173242 | 53 | 354 | 11.0 | 18.0 | 0.00 | 0.00 | 0.00 | 35 | 1029.8 |
| 20260504172739 | 52 | 196 | 3.0 | 11.0 | 0.00 | 0.00 | 0.00 | 31 | 1029.9 |
| 20260504172235 | 52 | 339 | 4.0 | 7.0 | 0.00 | 0.00 | 0.00 | 31 | 1029.9 |
| 20260504171731 | 52 | 318 | 7.0 | 13.0 | 0.00 | 0.00 | 0.00 | 32 | 1029.8 |
| 20260504171228 | 52 | 334 | 5.0 | 7.0 | 0.00 | 0.00 | 0.00 | 33 | 1029.9 |
| 20260504170725 | 51 | 301 | 1.0 | 13.0 | 0.00 | 0.00 | 0.00 | 35 | 1030.1 |
| 20260504170223 | 52 | 317 | 4.0 | 12.0 | 0.00 | 0.00 | 0.00 | 34 | 1030.2 |
| 20260504160141 | 49 | 307 | 9.0 | 14.0 | 0.00 | 0.00 | 0.00 | 39 | 1029.9 |
| 20260504151108 | 46 | 247 | 10.0 | 15.0 | 0.00 | 0.00 | 0.00 | 40 | 1030.5 |
| 20260504150606 | 46 | 253 | 13.0 | 13.0 | 0.00 | 0.00 | 0.00 | 39 | 1030.2 |
| 20260504141032 | 43 | 244 | 11.0 | 16.0 | 0.00 | 0.00 | 0.00 | 39 | 1030.2 |
| 20260504140528 | 43 | 252 | 16.0 | 18.0 | 0.00 | 0.00 | 0.00 | 39 | 1030.5 |
| 20260504130453 | 42 | 251 | 12.0 | 21.0 | 0.00 | 0.00 | 0.00 | 37 | 1030.2 |
| 20260504110335 | 46 | 86 | 1.0 | 3.0 | 0.00 | 0.00 | 0.00 | 29 | 1029.8 |
| 20260504100257 | 48 | 132 | 5.0 | 6.0 | 0.00 | 0.00 | 0.00 | 33 | 1030.1 |